Orbital Elements at Epoch 2459000.5 (2020-May-31.0) TDB
Reference: JPL 8 (heliocentric ecliptic J2000)
Element | Value | Uncertainty (1-sigma) | Units |
e | .1377570919284352 | 1.5904e-07 | |
a | 2.605124067310904 | 1.822e-08 | au |
q | 2.246249751685376 | 4.1605e-07 | au |
i | 5.25442887941214 | 8.437e-06 | deg |
node | 76.4998973140756 | 0.00011989 | deg |
peri | 291.0559050660887 | 0.00012923 | deg |
M | 59.03040696741621 | 3.75e-05 | deg |
tp | 2458748.666025236522 (2019-Sep-22.16602524) | 0.00016031 | TDB |
period | 1535.822562851295 4.20 | 1.6112e-05 4.411e-08 | d yr |
n | .2344020778882493 | 2.4591e-09 | deg/d |
Q | 2.963998382936431 | 2.073e-08 | au |
|
| | Orbit Determination Parameters
Additional Information
|